Other Public Products
Issued by NWS Grand Forks, ND

Home | Current Version | Previous Version | Graphics & Text | Print | Product List | Glossary On
Versions: 1 2 3 4 5 6 7 8 9 10 11 12 13 14 15 16 17 18 19 20 21 22 23 24 25 26 27 28 29 30 31 32 33 34 35 36 37 38 39 40 41 42 43 44 45 46 47 48 49 50
000
FPUS83 KFGF 130710
OPUFGF
PRAIRIE TO PINES WEATHER ROUNDUP
NATIONAL WEATHER SERVICE EASTERN NORTH DAKOTA/GRAND FORKS ND
200 AM CDT SUN JUL 13 2014

 **SATELLITE DATA USED TO AUGMENT SKY COVER AT AUTOMATED STATIONS**
 *****  WEATHER ACROSS EASTERN NORTH DAKOTA  *****

CITY           SKY/WX    TMP DP  RH WIND       PRES   REMARKS
GRAND FORKS    CLEAR     54  53  97 W6        29.95F
GRAND FORKS AF NOT AVBL
GRAND CITY NWS   N/A     54 N/A N/A W5          N/A
BUXTON         NOT AVBL
DEVILS LAKE    CLEAR     55  48  76 W9        29.98S
FARGO          CLEAR     58  53  84 W6        29.98S
WAHPETON ARPT  MOSUNNY   55  50  82 NW7       29.99S
$$

 *****  WEATHER ACROSS CENTRAL AND WESTERN NORTH DAKOTA  *****

CITY           SKY/WX    TMP DP  RH WIND       PRES   REMARKS
JAMESTOWN      CLEAR     57  53  86 W5        30.01F
BISMARCK       PTCLDY    61  55  81 W6        30.07S
MINOT          CLEAR     59  45  59 W12       30.05S
MINOT AFB      NOT AVBL
GARRISON         N/A     57  52  83 NW9       30.07F
WILLISTON      CLEAR     58  52  80 NE5       30.13R
DICKINSON      CLEAR     54  48  80 W7        30.12F
HETTINGER      CLEAR     55  52  89 CALM      30.16S
$$

 *****  OTHER OBSERVATIONS NORTHEAST NORTH DAKOTA  *****

CITY           SKY/WX    TMP DP  RH WIND       PRES   REMARKS
WALHALLA         N/A     54  54 100 CALM        N/A
LANGDON        FAIR      48  46  93 W7        29.96S
CAVALIER       FAIR      55  55 100 SW5       29.93F
GRAFTON        FAIR      54  54 100 SW7       29.94S
CANDO          FAIR      50  46  87 W8        30.00R
FORT TOTTEN    NOT AVBL
ROLLA          PTSUNNY   54  46  76 NW9       30.01S
RUGBY          FAIR      50  50 100 W8        30.01S
 ***** THE ABOVE OBSERVATIONS ARE NON NWS ARE NOT QUALITY
        CONTROLLED AND MAY MIS-REPORT RAIN FOR SNOW...
$$

 *****  OTHER OBSERVATIONS SOUTHEAST NORTH DAKOTA *****

CITY           SKY/WX    TMP DP  RH WIND       PRES   REMARKS
COOPERSTOWN    NOT AVBL
VALLEY CITY    CLOUDY    54  54 100 NW7       30.00S
OAKES          NOT AVBL
GWINNER        MOSUNNY   59  57  94 W6        30.02S
BUFFALO        NOT AVBL
WYNDMERE       NOT AVBL
 ***** THE ABOVE OBSERVATIONS ARE NON NWS ARE NOT QUALITY
       CONTROLLED AND MAY MIS-REPORT RAIN FOR SNOW...
$$

  *****  WEATHER ACROSS NORTHERN MINNESOTA  *****

CITY           SKY/WX    TMP DP  RH WIND       PRES   REMARKS
FLAG ISLAND    CLEAR     54  46  76 W13       29.85F
WARROAD        CLEAR     52  46  82 SW6       29.90S
ROSEAU         PTCLDY    54  48  82 SW6       29.91S
HALLOCK        LGT RAIN  57  55  94 W13       29.92S
THF RVR FALLS  CLOUDY    55  54  94 W3        29.94F VSB 1/4
HALSTAD          N/A     53  52  97 W5          N/A
FOSSTON        CLEAR     52  52 100 CALM      29.96S FOG
BAUDETTE       CLEAR     49  47  93 VRB3      29.90S
WASKISH        CLEAR     57  46  67 W5        29.91S
CROOKSTON      MOCLDY    52  52 100 W5        29.96S FOG
$$
  *****  WEATHER ACROSS CENTRAL AND WEST MINNESOTA  *****

CITY           SKY/WX    TMP DP  RH WIND       PRES   REMARKS
BEMIDJI        CLEAR     50  49  98 W5        29.93F
PARK RAPIDS    CLEAR     54  53  97 NW6       29.95R
WADENA         PTCLDY    59  54  82 NW6       29.96R
DETROIT LAKES  CLEAR     57  55  94 NW6       29.99R
MOORHEAD       CLEAR     59  57  94 NW5       29.99S
FERGUS FALLS   PTCLDY    61  52  72 NW8       29.98R
ELBOW LAKE     FAIR      59  55  88 NW8       29.97R
MORRIS MN      CLEAR     61  55  82 N6        29.96R
STAPLES        PTCLDY    59  54  82 NW8       29.95R
WHEATON        CLEAR     57  54  88 W5        30.00S
$$
  *****  WEATHER ELSEWHERE ACROSS MINNESOTA  *****

CITY           SKY/WX    TMP DP  RH WIND       PRES   REMARKS
DULUTH         PTCLDY    58  52  80 NW13      29.87R
INTRNTL FALLS  CLEAR     49  47  93 W6        29.87F
ELY            PTCLDY    54  52  94 NW7       29.85S
CLOQUET        PTCLDY    57  54  88 W7        29.89R
BRAINERD       MOCLDY    67  53  61 NW15      29.94R
HIBBING        CLEAR     55  51  86 NW6       29.89R
ALEXANDRIA     PTCLDY    62  54  74 N6        29.97S
SAINT CLOUD    CLEAR     66  61  84 NW8       29.91R
MINNEAPOLIS    CLEAR     67  65  93 SW7       29.90F
$$

  *****  WEATHER ACROSS SOUTH DAKOTA  *****

CITY           SKY/WX    TMP DP  RH WIND       PRES   REMARKS
SIOUX FALLS    CLEAR     66  63  90 CALM      30.01F
BROOKINGS      NOT AVBL
WATERTOWN      PTCLDY    66  62  87 W7        30.01S
HURON          MOCLDY    66  61  84 NW9       30.02S
SISSETON         N/A     60  56  86 NW6       29.99S
ABERDEEN       CLEAR     65  60  84 N13       30.03R
MITCHELL       CLEAR     67  63  87 NW8       30.03F
PIERRE         PTCLDY    67  64  90 CALM      30.07R
MOBRIDGE       CLEAR     60  58  92 CALM      30.05S
RAPID CITY     CLEAR     65  60  84 NW10      30.19F
$$

  *****  SOME WEATHER IN NEARBY STATES *****

CITY           SKY/WX    TMP DP  RH WIND       PRES   REMARKS
GLASGOW MT     NOT AVBL
GREAT FALLS MT NOT AVBL
CHEYENNE WY    LGT RAIN  60  57  89 NE14      30.41S
SCOTTSBLUFF NE PTCLDY    65  64  97 N3        30.26R
OMAHA NE       PTCLDY    70  66  87 S7        30.03R
DES MOINES IA  MOCLDY    68  66  93 SW5       30.00R
DAVENPORT IA     N/A     67  65  93 NW8       29.95R
CHICAGO IL     CLOUDY    71  66  84 W8        29.85S
EAU CLAIRE WI  CLEAR     64  63  96 SW5       29.87F
LA CROSSE WI   CLEAR     63  62  97 SE6       29.90F FOG
$$

  *****  SOME NATIONAL WEATHER *****

CITY           SKY/WX    TMP DP  RH WIND       PRES   REMARKS
LA GUARDIA NY  MOCLDY    73  64  73 S9        30.10F
RALEIGH NC     CLEAR     75  69  81 S6        30.14F
ATLANTA GA     PTCLDY    75  68  78 CALM      30.13F
NEW ORLEANS LA CLEAR     79  75  87 S5        30.03F
OKLAHOMA CITY  CLEAR     71  60  68 S7        30.06F
ALBUQUERQUE NM PTCLDY    76  54  46 S5        30.26R
SALT LAKE CITY NOT AVBL
LOS ANGELES CA MOCLDY    69  61  75 NW6       29.94F
BOISE ID       NOT AVBL
SEATTLE WA     CLEAR     71  53  52 N6        30.10R
$$

*** WEATHER ACROSS MANITOBA...SASKATCHEWAN AND ONTARIO ***
                ***ONTARIO***

CITY           SKY/WX    TMP DP  RH WIND       PRES   REMARKS
GERALDTON      LGT RAIN  59  52  77 W12G17    29.67F
THUNDER BAY    LGT RAIN  59  54  82 W9        29.74F
SIOUX LOOKOUT  PTCLDY    50  48  93 W5        29.75F
TORONTO        LGT RAIN  72  63  73 SE3       29.88F
BIG TROUT LK   MOCLDY    52  48  87 W7        29.52S
PICKLE LAKE    NOT AVBL
DRYDEN         CLEAR     50  48  93 SW12      29.79S
KENORA         PTCLDY    52  46  82 W9        29.84F
$$
                *** MANITOBA***

CITY           SKY/WX    TMP DP  RH WIND       PRES   REMARKS
BRANDON        CLEAR     50  46  87 W9        29.98S
DAUPHIN        CLEAR     54  45  71 W8        29.94F
ISLAND LAKE    LGT RAIN  50  46  87 NW14G22   29.60S
PILOT MOUND      N/A     52  45  76 W7          N/A
THE PAS        CLOUDY    55  45  67 NW18      29.91R
THOMPSON       LGT RAIN  46  46 100 NW12      29.72R
WINNIPEG       LGT RAIN  54  52  94 W5        29.91F
LYNN LAKE      CLOUDY    48  45  87 N17G24    29.93S
CHURCHILL      LGT RAIN  39  39 100 NE21      29.64R FOG
GILLAM         LGT RAIN  43  43 100 N12       29.60R
$$
                ***SASKATCHEWAN***

CITY           SKY/WX    TMP DP  RH WIND       PRES   REMARKS
ESTEVAN        CLEAR     50  48  93 W7        30.11R
KINDERSLEY     CLEAR     55  50  82 VRB2      30.20R
LLOYDMINSTER   CLEAR     52  48  87 CALM      30.20R
PRINCE ALBERT  CLEAR     50  43  76 NW7       30.11R
REGINA         CLEAR     50  46  87 VRB2      30.14R
YORKTON        CLEAR     54  45  71 W12       30.04R



USA.gov is the U.S. government's official web portal to all federal, state and local government web resources and services.